Home > Weather > Papenburg > Past weeks

Flag for Germany Past Weather in Papenburg, Lower Saxony, Germany — Yesterday and Last 2 Weeks

Now
56 °F

Clear.


Feels Like: 56 °F
Forecast: 53 / 61 °F
Wind: 2 mph from Southwest

Location: Emden-Koenigspolder

Current Time: Jun 26, 2016 at 5:00:48 AM

Latest Report: Jun 26, 2016 at 4:00 AM


Visibility: 4 mi

Pressure: 29.94 "Hg

Humidity: 96%

Dew Point: 55 °F

Location of PapenburgLocation

Past Weather in Papenburg — Graph

°F

Papenburg Temperature Yesterday

Maximum temperature yesterday: 62 °F (at 3:00 PM)
Minimum temperature yesterday: 54 °F (at 3:00 AM)
Average temperature yesterday: 58 °F

High & Low Weather Summary for the Past Weeks

 TemperatureHumidityPressure
High80 °F (Jun 23, 1:00 PM)100% (Jun 14, 12:00 AM)30.24 "Hg (Jun 14, 12:00 AM)
Low51 °F (Jun 11, 6:00 AM)49% (Jun 11, 4:00 PM)29.41 "Hg (Jun 14, 6:00 PM)
Average61 °F83%29.86 "Hg
* Reported Jun 11 4:00 AM — Jun 26 4:00 AM, Papenburg, Weather by CustomWeather, © 2016

Note: Actual official high and low records may vary slightly from our data, if they occured in-between our weather recording intervals... More about our weather records

Advertising

Papenburg Weather History for the Previous 24 Hours

Scroll right to see more
 ConditionsComfort  
Time TempWeatherWind HumidityBarometerVisibility
4:00 AM
Sun, Jun 26
56 °FClear.2 mph96%29.94 "Hg4 mi
3:00 AM57 °FOvercast.2 mph97%29.94 "Hg4 mi
1:00 AM57 °FOvercast.2 mph96%29.96 "Hg9 mi
12:00 AM56 °FOvercast.N/A95%29.96 "Hg9 mi
10:00 PM
Sat, Jun 25
57 °FLight rain. Overcast.3 mph96%29.95 "Hg6 mi
9:00 PM56 °FLight rain. Overcast.N/A91%29.94 "Hg6 mi
7:00 PM60 °FDrizzle. Overcast.5 mph92%29.95 "Hg9 mi
6:00 PM61 °FLight rain. Low clouds.5 mph92%29.95 "Hg5 mi
4:00 PM61 °FLight rain. Overcast.3 mph89%29.96 "Hg9 mi
3:00 PM62 °FLight rain. Low clouds.3 mph87%29.96 "Hg11 mi
1:00 PM61 °FLight rain. Low clouds.2 mph92%29.99 "Hg3 mi
12:00 PM61 °FLight rain. Overcast.N/A90%29.96 "Hg9 mi
10:00 AM60 °FLow clouds.2 mph93%30.00 "Hg4 mi
9:00 AM59 °FLight rain. Overcast.2 mph93%30.00 "Hg3 mi
7:00 AM57 °FOvercast.2 mph97%30.02 "Hg3 mi
6:00 AM57 °FOvercast.1 mph99%30.03 "Hg3 mi
Weather by CustomWeather, © 2016

See weather overviewHow to use our weather pages